Regional Weather Roundup
Issued by NWS

Home | Current Version | Previous Version | Text Only | Print | Product List | Glossary On
Versions: 1 2 3 4 5 6 7 8 9 10 11 12 13 14 15 16 17 18 19 20 21 22 23 24 25 26 27 28 29 30 31 32 33 34 35 36 37 38 39 40 41 42 43 44 45 46 47 48 49 50
077
ASUS46 KSEW 240410
RWRWA

WASHINGTON REGIONAL WEATHER ROUNDUP
NATIONAL WEATHER SERVICE SEATTLE WA
800 PM PST THU NOV 23 2017

NOTE:"FAIR" INDICATES FEW OR NO CLOUDS BELOW 12,000 FEET WITH NO
SIGNIFICANT WEATHER AND/OR OBSTRUCTIONS TO VISIBILITY.

WAZ507-509-555>559-240500-
SEATTLE, TACOMA, EVERETT, AND VICINITY

CITY           SKY/WX    TMP DP  RH WIND       PRES   REMARKS
EVERETT        MOCLDY    48  45  89 S18       29.90S
BOEING FIELD   PTCLDY    50  44  80 S9G20     29.93R
RENTON         PTCLDY    50  45  83 SE8       29.94R
SEATAC AIRPORT PTCLDY    48  44  86 S12       29.93R
JBLM-MCCHORD   CLEAR     47  47 100 SW13      29.96R
PUYALLUP       MOCLDY    46  46 100 SW6       29.96S
BREMERTON      CLOUDY    47  45  93 S15       29.93R
JBLM-FT LEWIS  MOCLDY    47  47 100 S8        29.96R
TACOMA NARROWS PTCLDY    47  46  97 S15       29.94R
$$

WAZ001-503-506-510-514-515-240500-
NORTH INTERIOR

CITY           SKY/WX    TMP DP  RH WIND       PRES   REMARKS
BELLINGHAM     MOCLDY    50  46  86 S8        29.87R
FRIDAY HARBOR  CLOUDY    48  47  96 SW8       29.88R
EASTSOUND      MOCLDY    50  43  76 S8        29.86S
PORT ANGELES   CLEAR     45  41  86 SW3       29.89R
EDIZ HOOK      FAIR      46  44  95 CALM      29.88S
PORT TOWNSEND  FOG       41  41 100 CALM      29.89R VSB 1/4
NAS WHIDBEY    MOCLDY    50  44  80 E7        29.92S
ARLINGTON      CLOUDY    49  46  90 S7        29.91R
BURLINGTON     MOCLDY    48  48 100 CALM      29.89S
$$

WAZ020-022-039-040-504-511-512-240500-
SOUTHWEST INTERIOR

CITY           SKY/WX    TMP DP  RH WIND       PRES   REMARKS
SHELTON        MOCLDY    48  46  93 SW7       29.93R
OLYMPIA        LGT RAIN  48  47  96 S7        29.97R
CHEHALIS       LGT RAIN  48  48 100 SW5G12    29.99R
KELSO          MOCLDY    49  47  93 S5        30.03R
VANCOUVER      PTCLDY    49  45  86 E3        30.03R
SCAPPOOSE, OR  MOCLDY    43  43 100 W5        30.02R
PORTLAND, OR   PTCLDY    48  43  82 S7        30.04R
$$

WAZ021-516-517-240500-
WASHINGTON COAST

CITY           SKY/WX    TMP DP  RH WIND       PRES   REMARKS
FORKS          LGT RAIN  49  47  93 SW9       29.90R
HOQUIAM        MOCLDY    50  47  89 SW16      29.96R
ASTORIA, OR    PTCLDY    50  47  89 SW8       30.01R
$$

WAZ019-023-024-040-567>569-240500-
CASCADE MOUNTAINS AND COLUMBIA GORGE

CITY           SKY/WX    TMP DP  RH WIND       PRES   REMARKS
STAMPEDE PASS  LGT SNOW  34  32  92 SW12G25   29.83S FOG     WCI  25
TROUTDALE, OR  PTCLDY    51  46  83 SW8       30.03R
HOOD RIVER, OR CLEAR     46  43  87 SW8       29.97S
THE DALLES, OR CLOUDY    53  42  66 NW5       29.96R
$$

WAZ026-027-041>044-520-521-240500-
EAST SLOPES

CITY           SKY/WX    TMP DP  RH WIND       PRES   REMARKS
OMAK           CLEAR     45  34  65 W5        29.76R
WENATCHEE      CLEAR     46  32  58 NW6       29.81R
ELLENSBURG     CLEAR     42  34  73 W6        29.85S
YAKIMA         CLEAR     47  35  63 VRB3      29.88R
SUNNYSIDE ARPT CLEAR     44  37  77 S3        29.88S
YAKIMA TC      FAIR      48  31  51 SW10      29.84R
$$

WAZ028-034-035-240500-
COLUMBIA BASIN

CITY           SKY/WX    TMP DP  RH WIND       PRES   REMARKS
EPHRATA        CLEAR     40  29  64 SW6       29.82R
MOSES LAKE     CLEAR     45  35  68 W7        29.84R
PASCO          CLEAR     48  41  76 CALM      29.89R
RICHLAND ARPT  CLEAR     52  43  71 S7        29.87S
HERMISTON, OR  CLOUDY    54  45  71 SW12      29.92R
$$

WAZ036>038-240500-
NORTHEAST WASHINGTON

CITY           SKY/WX    TMP DP  RH WIND       PRES   REMARKS
SPOKANE GEIGER CLEAR     45  42  89 SW14      29.79R
SPOKANE FELTS  CLEAR     48  40  73 W9        29.79R
FAIRCHILD AFB  CLEAR     42  42 100 SW14      29.79R
COEURDALENE,ID PTCLDY    46  37  71 SW18      29.79R
DEER PARK      CLEAR     46  35  65 W12       29.76R
$$

WAZ029>033-240500-
SOUTHEAST WASHINGTON

CITY           SKY/WX    TMP DP  RH WIND       PRES   REMARKS
PULLMAN        CLOUDY    48  39  71 W17G24    29.85R
LEWISTON, ID   MOCLDY    54  44  69 W13G23    29.84R
WALLA WALLA    CLOUDY    54  45  71 SW13      29.91R
PENDLETON, OR  CLOUDY    51  44  77 W17       29.93R
$$




USA.gov is the U.S. government's official web portal to all federal, state and local government web resources and services.